H1 CPF 2 NER 2023 9 4 9 247 01 glonass143 H2 2007501 9143 46805 2023 9 4 0 0 0 2023 9 7 23 45 0 900 1 1 0 0 0 1 H9 10 0 60191 0.00000 0 -14947922.496 -12974486.969 -16086571.455 10 0 60191 900.00000 0 -15914971.635 -14539298.143 -13638061.673 10 0 60191 1800.00000 0 -16824067.123 -15760576.191 -10924641.504 10 0 60191 2700.00000 0 -17615900.153 -16631405.091 -7999063.891 10 0 60191 3600.00000 0 -18232890.878 -17157867.670 -4918178.101 10 0 60191 4500.00000 0 -18621733.932 -17358553.777 -1741822.838 10 0 60191 5400.00000 0 -18735779.547 -17263555.217 1468337.165 10 0 60191 6300.00000 0 -18537149.851 -16912991.233 4650008.206 10 0 60191 7200.00000 0 -17998501.159 -16355127.956 7741474.867 10 0 60191 8100.00000 0 -17104357.985 -15644172.042 10682793.952 10 0 60191 9000.00000 0 -15851962.620 -14837832.147 13416952.082 10 0 60191 9900.00000 0 -14251604.374 -13994751.325 15890964.759 10 0 60191 10800.00000 0 -12326414.325 -13171918.446 18056896.135 10 0 60191 11700.00000 0 -10111633.568 -12422167.321 19872780.454 10 0 60191 12600.00000 0 -7653384.771 -11791868.220 21303428.091 10 0 60191 13500.00000 0 -5006997.165 -11318908.204 22321101.483 10 0 60191 14400.00000 0 -2234953.426 -11031044.537 22906048.634 10 0 60191 15300.00000 0 595457.628 -10944699.827 23046884.507 10 0 60191 16200.00000 0 3414686.643 -11064249.263 22740813.261 10 0 60191 17100.00000 0 6153563.585 -11381829.895 21993687.072 10 0 60191 18000.00000 0 8745923.781 -11877680.370 20819900.076 10 0 60191 18900.00000 0 11131112.503 -12520997.512 19242118.822 10 0 60191 19800.00000 0 13256265.171 -13271274.653 17290853.521 10 0 60191 20700.00000 0 15078269.132 -14080066.434 15003877.294 10 0 60191 21600.00000 0 16565325.854 -14893106.711 12425503.520 10 0 60191 22500.00000 0 17698048.626 -15652691.157 9605734.217 10 0 60191 23400.00000 0 18470049.969 -16300224.505 6599295.146 10 0 60191 24300.00000 0 18887994.144 -16778825.025 3464575.794 10 0 60191 25200.00000 0 18971112.576 -17035875.883 262494.620 10 0 60191 26100.00000 0 18750202.650 -17025414.784 -2944688.182 10 0 60191 27000.00000 0 18266152.305 -16710259.806 -6094586.828 10 0 60191 27900.00000 0 17568053.070 -16063780.206 -9125910.590 10 0 60191 28800.00000 0 16710981.823 -15071235.854 -11979664.258 10 0 60191 29700.00000 0 15753545.691 -13730627.254 -14600304.110 10 0 60191 30600.00000 0 14755294.665 -12053018.791 -16936826.039 10 0 60191 31500.00000 0 13774112.036 -10062320.304 -18943763.919 10 0 60191 32400.00000 0 12863693.572 -7794535.030 -20582078.313 10 0 60191 33300.00000 0 12071222.421 -5296504.551 -21819918.029 10 0 60191 34200.00000 0 11435338.140 -2624202.617 -22633239.674 10 0 60191 35100.00000 0 10984485.568 159351.373 -23006273.411 10 0 60191 36000.00000 0 10735712.964 2986472.572 -22931826.179 10 0 60191 36900.00000 0 10693969.661 5787385.681 -22411416.916 10 0 60191 37800.00000 0 10851932.246 8492887.878 -21455241.585 10 0 60191 38700.00000 0 11190365.945 11036989.290 -20081969.053 10 0 60191 39600.00000 0 11679005.245 13359421.617 -18318372.155 10 0 60191 40500.00000 0 12277915.934 15407911.202 -16198801.351 10 0 60191 41400.00000 0 12939280.470 17140122.758 -13764511.455 10 0 60191 42300.00000 0 13609530.736 18525193.738 -11062854.714 10 0 60191 43200.00000 0 14231737.703 19544796.594 -8146356.159 10 0 60191 44100.00000 0 14748156.666 20193685.944 -5071689.415 10 0 60191 45000.00000 0 15102820.275 20479709.250 -1898573.196 10 0 60191 45900.00000 0 15244069.630 20423282.158 1311389.819 10 0 60191 46800.00000 0 15126916.410 20056352.028 4495908.895 10 0 60191 47700.00000 0 14715136.262 19420894.565 7593212.503 10 0 60191 48600.00000 0 13983005.056 18567007.910 10543243.424 10 0 60191 49500.00000 0 12916604.751 17550685.159 13288818.646 10 0 60191 50400.00000 0 11514643.708 16431359.499 15776731.798 10 0 60191 51300.00000 0 9788756.593 15269325.287 17958777.301 10 0 60191 52200.00000 0 7763270.708 14123143.234 19792677.070 10 0 60191 53100.00000 0 5474447.694 13047138.197 21242892.623 10 0 60191 54000.00000 0 2969231.158 12089093.892 22281307.717 10 0 60191 54900.00000 0 303551.086 11288240.426 22887769.122 10 0 60191 55800.00000 0 -2459745.911 10673618.317 23050475.649 10 0 60191 56700.00000 0 -5253256.168 10262886.892 22766208.315 10 0 60191 57600.00000 0 -8007572.053 10061626.651 22040397.215 10 0 60191 58500.00000 0 -10653924.186 10063164.721 20887023.512 10 0 60191 59400.00000 0 -13126804.551 10248930.894 19328357.797 10 0 60191 60300.00000 0 -15366462.731 10589329.713 17394538.972 10 0 60191 61200.00000 0 -17321172.337 11045092.591 15123000.712 10 0 60191 62100.00000 0 -18949173.811 11569053.690 12557755.478 10 0 60191 63000.00000 0 -20220212.830 12108275.375 9748548.860 10 0 60191 63900.00000 0 -21116610.027 12606433.986 6749899.820 10 0 60191 64800.00000 0 -21633817.089 13006365.292 3620044.859 10 0 60191 65700.00000 0 -21780435.720 13252661.792 419806.397 10 0 60191 66600.00000 0 -21577698.495 13294211.383 -2788592.461 10 0 60191 67500.00000 0 -21058433.469 13086568.986 -5942743.258 10 0 60191 68400.00000 0 -20265556.286 12594059.503 -8981273.215 10 0 60191 69300.00000 0 -19250153.793 11791521.690 -11845047.276 10 0 60191 70200.00000 0 -18069240.522 10665617.648 -14478326.809 10 0 60191 71100.00000 0 -16783283.414 9215651.101 -16829861.576 10 0 60191 72000.00000 0 -15453599.891 7453858.466 -18853892.945 10 0 60191 72900.00000 0 -14139739.710 5405159.162 -20511048.366 10 0 60191 73800.00000 0 -12896961.402 3106374.474 -21769109.493 10 0 60191 74700.00000 0 -11773909.966 604946.842 -22603638.961 10 0 60191 75600.00000 0 -10810593.552 -2042787.604 -22998453.866 10 0 60191 76500.00000 0 -10036744.046 -4773701.664 -22945937.092 10 0 60191 77400.00000 0 -9470630.006 -7520267.545 -22447180.813 10 0 60191 78300.00000 0 -9118371.081 -10213135.977 -21511959.834 10 0 60191 79200.00000 0 -8973781.857 -12783796.934 -20158535.683 10 0 60191 80100.00000 0 -9018750.617 -15167211.585 -18413295.590 10 0 60191 81000.00000 0 -9224136.019 -17304306.363 -16310233.656 10 0 60191 81900.00000 0 -9551142.825 -19144225.923 -13890284.500 10 0 60191 82800.00000 0 -9953117.688 -20646251.789 -11200522.561 10 0 60191 83700.00000 0 -10377688.370 -21781307.591 -8293242.850 10 0 60191 84600.00000 0 -10769155.292 -22532989.111 -5224941.185 10 0 60191 85500.00000 0 -11071033.832 -22898077.265 -2055214.099 10 0 60192 0.00000 0 -11228639.451 -22886513.915 1154399.714 10 0 60192 900.00000 0 -11191606.156 -22520842.767 4341615.299 10 0 60192 1800.00000 0 -10916231.521 -21835140.226 7444607.006 10 0 60192 2700.00000 0 -10367549.366 -20873482.169 10403205.899 10 0 60192 3600.00000 0 -9521042.287 -19688011.852 13160061.653 10 0 60192 4500.00000 0 -8363921.779 -18336690.733 15661748.320 10 0 60192 5400.00000 0 -6895921.769 -16880826.828 17859792.797 10 0 60192 6300.00000 0 -5129571.666 -15382484.184 19711606.741 10 0 60192 7200.00000 0 -3089936.732 -13901881.641 21181304.665 10 0 60192 8100.00000 0 -813835.569 -12494889.167 22240393.251 10 0 60192 9000.00000 0 1651433.961 -11210725.690 22868319.333 10 0 60192 9900.00000 0 4249808.790 -10089953.854 23052866.565 10 0 60192 10800.00000 0 6918545.073 -9162854.699 22790393.491 10 0 60192 11700.00000 0 9590588.103 -8448249.468 22085908.474 10 0 60192 12600.00000 0 12197130.933 -7952817.388 20952979.729 10 0 60192 13500.00000 0 14670256.943 -7670937.659 19413481.595 10 0 60192 14400.00000 0 16945557.877 -7585062.301 17497181.037 10 0 60192 15300.00000 0 18964619.317 -7666604.387 15241171.296 10 0 60192 16200.00000 0 20677270.746 -7877304.649 12689162.547 10 0 60192 17100.00000 0 22043506.571 -8171019.285 9890642.172 10 0 60192 18000.00000 0 23034997.769 -8495853.846 6899920.136 10 0 60192 18900.00000 0 23636130.612 -8796553.177 3775077.357 10 0 60192 19800.00000 0 23844528.532 -9017046.177 576837.273 10 0 60192 20700.00000 0 23671034.790 -9103037.172 -2632617.308 10 0 60192 21600.00000 0 23139156.374 -9004533.327 -5790858.605 10 0 60192 22500.00000 0 22283992.424 -8678199.943 -8836435.167 10 0 60192 23400.00000 0 21150692.364 -8089442.509 -11710075.380 10 0 60192 24300.00000 0 19792509.048 -7214125.921 -14355848.824 10 0 60192 25200.00000 0 18268529.387 -6039856.607 -16722262.006 10 0 60192 26100.00000 0 16641178.654 -4566771.904 -18763266.402 10 0 60192 27000.00000 0 14973604.117 -2807801.987 -20439158.660 10 0 60192 27900.00000 0 13327048.562 -788392.036 -21717355.275 10 0 60192 28800.00000 0 11758324.486 1454304.742 -22573026.560 10 0 60192 29700.00000 0 10317495.124 3872730.339 -22989577.842 10 0 60192 30600.00000 0 9045859.451 6410667.601 -22958968.839 10 0 60192 31500.00000 0 7974325.229 9005355.923 -22481865.437 10 0 60192 32400.00000 0 7122237.532 11589889.139 -21567621.333 10 0 60192 33300.00000 0 6496710.852 14095796.010 -20234090.315 10 0 60192 34200.00000 0 6092491.571 16455696.068 -18507273.162 10 0 60192 35100.00000 0 5892355.218 18605920.505 -16420806.311 10 0 60192 36000.00000 0 5868020.374 20488989.273 -14015302.437 10 0 60192 36900.00000 0 5981539.405 22055841.546 -11337555.991 10 0 60192 37800.00000 0 6187106.110 23267727.120 -8439629.355 10 0 60192 38700.00000 0 6433202.927 24097680.461 -5377837.574 10 0 60192 39600.00000 0 6664996.086 24531516.703 -2211651.714 10 0 60192 40500.00000 0 6826876.760 24568308.898 997457.568 10 0 60192 41400.00000 0 6865040.289 24220327.636 4187213.550 10 0 60192 42300.00000 0 6729994.064 23512446.666 7295740.617 10 0 60192 43200.00000 0 6378887.893 22481040.424 10262761.595 10 0 60192 44100.00000 0 5777568.266 21172420.568 13030762.117 10 0 60192 45000.00000 0 4902269.723 19640877.657 15546099.661 10 0 60192 45900.00000 0 3740871.823 17946410.353 17760036.283 10 0 60192 46800.00000 0 2293668.461 16152237.195 19629675.711 10 0 60192 47700.00000 0 573616.562 14322194.733 21118787.410 10 0 60192 48600.00000 0 -1393947.136 12518130.146 22198502.539 10 0 60192 49500.00000 0 -3572110.619 10797396.405 22847869.121 10 0 60192 50400.00000 0 -5913680.302 9210553.581 23054256.309 10 0 60192 51300.00000 0 -8362911.640 7799371.192 22813600.329 10 0 60192 52200.00000 0 -10857606.391 6595213.997 22130487.432 10 0 60192 53100.00000 0 -13331490.997 5617877.832 21018071.947 10 0 60192 54000.00000 0 -15716778.812 4874923.499 19497830.465 10 0 60192 54900.00000 0 -17946810.985 4361536.185 17599155.975 10 0 60192 55800.00000 0 -19958667.104 4060916.153 15358798.777 10 0 60192 56700.00000 0 -21695637.491 3945184.265 12820163.839 10 0 60192 57600.00000 0 -23109454.289 3976764.402 10032477.135 10 0 60192 58500.00000 0 -24162187.977 4110184.589 7049836.255 10 0 60192 59400.00000 0 -24827729.579 4294220.855 3930163.102 10 0 60192 60300.00000 0 -25092795.831 4474292.984 734078.743 10 0 60192 61200.00000 0 -24957414.467 4595010.363 -2476277.580 10 0 60192 62100.00000 0 -24434868.601 4602759.363 -5638461.870 10 0 60192 63000.00000 0 -23551102.082 4448221.606 -8690946.906 10 0 60192 63900.00000 0 -22343610.596 4088715.211 -11574327.190 10 0 60192 64800.00000 0 -20859865.159 3490258.430 -14232482.926 10 0 60192 65700.00000 0 -19155334.570 2629266.865 -16613679.483 10 0 60192 66600.00000 0 -17291190.385 1493811.042 -18671580.185 10 0 60192 67500.00000 0 -15331791.358 84379.830 -20366152.235 10 0 60192 68400.00000 0 -13342053.427 -1585883.776 -21664447.864 10 0 60192 69300.00000 0 -11384815.986 -3491485.545 -22541245.504 10 0 60192 70200.00000 0 -9518314.959 -5595409.855 -22979538.694 10 0 60192 71100.00000 0 -7793868.409 -7850442.493 -22970863.544 10 0 60192 72000.00000 0 -6253871.186 -10200931.662 -22515458.819 10 0 60192 72900.00000 0 -4930181.752 -12584914.074 -21622255.935 10 0 60192 73800.00000 0 -3842967.692 -14936517.718 -20308699.477 10 0 60192 74700.00000 0 -3000056.946 -17188541.271 -18600402.080 10 0 60192 75600.00000 0 -2396820.445 -19275102.787 -16530640.637 10 0 60192 76500.00000 0 -2016589.434 -21134247.360 -14139703.867 10 0 60192 77400.00000 0 -1831588.326 -22710405.171 -11474104.138 10 0 60192 78300.00000 0 -1804342.211 -23956597.629 -8585669.080 10 0 60192 79200.00000 0 -1889498.258 -24836299.810 -5530530.830 10 0 60192 80100.00000 0 -2035982.911 -25324881.911 -2368032.889 10 0 60192 81000.00000 0 -2189402.719 -25410570.027 840423.930 10 0 60192 81900.00000 0 -2294586.564 -25094886.836 4032573.772 10 0 60192 82800.00000 0 -2298161.260 -24392554.525 7146492.830 10 0 60192 83700.00000 0 -2151051.287 -23330864.851 10121797.756 10 0 60192 84600.00000 0 -1810796.861 -21948543.417 12900812.192 10 0 60192 85500.00000 0 -1243592.341 -20294156.280 15429679.067 10 0 60193 0.00000 0 -425958.984 -18424126.033 17659397.364 10 0 60193 900.00000 0 654019.122 -16400439.287 19546765.114 10 0 60193 1800.00000 0 1995947.165 -14288143.562 21055208.177 10 0 60193 2700.00000 0 3586893.284 -12152734.134 22155483.627 10 0 60193 3600.00000 0 5401693.231 -10057541.386 22826241.860 10 0 60193 4500.00000 0 7403774.960 -8061225.564 23054438.435 10 0 60193 5400.00000 0 9546470.121 -6215482.320 22835587.893 10 0 60193 6300.00000 0 11774759.516 -4563053.474 22173854.720 10 0 60193 7200.00000 0 14027381.454 -3136124.899 21081979.444 10 0 60193 8100.00000 0 16239216.877 -1955177.427 19581040.715 10 0 60193 9000.00000 0 18343853.382 -1028338.109 17700057.086 10 0 60193 9900.00000 0 20276222.406 -351258.503 15475435.156 10 0 60193 10800.00000 0 21975200.361 92475.200 12950273.622 10 0 60193 11700.00000 0 23386065.460 330417.567 10173535.639 10 0 60193 12600.00000 0 24462707.404 399863.799 7199104.659 10 0 60193 13500.00000 0 25169496.992 346033.248 4084741.443 10 0 60193 14400.00000 0 25482736.558 219913.507 890962.221 10 0 60193 15300.00000 0 25391629.474 75856.665 -2320140.078 10 0 60193 16200.00000 0 24898727.102 -30969.842 -5486108.175 10 0 60193 17100.00000 0 24019833.603 -47168.920 -8545342.119 10 0 60193 18000.00000 0 22783371.974 76374.669 -11438305.555 10 0 60193 18900.00000 0 21229237.614 382164.623 -14108692.242 10 0 60193 19800.00000 0 19407187.466 904045.277 -16504529.180 10 0 60193 20700.00000 0 17374832.549 1665523.675 -18579194.134 10 0 60193 21600.00000 0 15195318.387 2678533.777 -20292327.231 10 0 60193 22500.00000 0 12934790.943 3942696.196 -21610618.618 10 0 60193 23400.00000 0 10659754.531 5445105.748 -22508456.798 10 0 60193 24300.00000 0 8434432.459 7160656.704 -22968425.230 10 0 60193 25200.00000 0 6318240.692 9052892.866 -22981637.845 10 0 60193 26100.00000 0 4363479.827 11075347.433 -22547907.375 10 0 60193 27000.00000 0 2613341.139 13173316.996 -21675743.657 10 0 60193 27900.00000 0 1100309.042 15285995.811 -20382182.348 10 0 60193 28800.00000 0 -154974.516 17348881.303 -18692447.729 10 0 60193 29700.00000 0 -1144337.742 19296350.424 -16639456.454 10 0 60193 30600.00000 0 -1872174.193 21064299.315 -14263172.089 10 0 60193 31500.00000 0 -2355003.271 22592735.998 -11609823.228 10 0 60193 32400.00000 0 -2620516.291 23828217.815 -8731000.577 10 0 60193 33300.00000 0 -2706149.987 24726031.843 -5682650.772 10 0 60193 34200.00000 0 -2657249.119 25252027.261 -2523986.771 10 0 60193 35100.00000 0 -2524897.014 25384023.329 683663.726 10 0 60193 36000.00000 0 -2363506.747 25112734.451 3878049.211 10 0 60193 36900.00000 0 -2228275.512 24442174.112 6997201.282 10 0 60193 37800.00000 0 -2172610.298 23389521.283 9980634.008 10 0 60193 38700.00000 0 -2245633.928 21984455.431 12770512.571 10 0 60193 39600.00000 0 -2489876.914 20267988.314 15312768.709 10 0 60193 40500.00000 0 -2939252.555 18290841.636 17558141.847 10 0 60193 41400.00000 0 -3617400.664 16111438.246 19463126.381 10 0 60193 42300.00000 0 -4536469.821 13793590.428 20990807.541 10 0 60193 43200.00000 0 -5696389.674 11403981.008 22111570.488 10 0 60193 44100.00000 0 -7084664.515 9009541.301 22803669.748 10 0 60193 45000.00000 0 -8676697.700 6674833.976 23053648.574 10 0 60193 45900.00000 0 -10436634.603 4459548.473 22856600.582 10 0 60193 46800.00000 0 -12318690.383 2416211.882 22216268.680 10 0 60193 47700.00000 0 -14268908.703 588209.400 21144979.177 10 0 60193 48600.00000 0 -16227279.660 -991804.354 19663411.739 10 0 60193 49500.00000 0 -18130130.051 -2303037.766 17800208.829 10 0 60193 50400.00000 0 -19912687.423 -3337191.818 15591431.122 10 0 60193 51300.00000 0 -21511711.714 -4098560.976 13079868.326 10 0 60193 52200.00000 0 -22868084.930 -4603601.467 10314217.653 10 0 60193 53100.00000 0 -23929250.453 -4879985.301 7348145.000 10 0 60193 54000.00000 0 -24651399.369 -4965180.048 4239246.402 10 0 60193 54900.00000 0 -25001311.343 -4904614.550 1047929.605 10 0 60193 55800.00000 0 -24957771.703 -4749508.457 -2163762.390 10 0 60193 56700.00000 0 -24512504.074 -4554457.991 -5333362.547 10 0 60193 57600.00000 0 -23670578.240 -4374880.950 -8399201.528 10 0 60193 58500.00000 0 -22450275.084 -4264430.202 -11301615.281 10 0 60193 59400.00000 0 -20882413.558 -4272486.373 -13984114.013 10 0 60193 60300.00000 0 -19009167.403 -4441837.172 -16394488.941 10 0 60193 61200.00000 0 -16882421.126 -4806642.840 -18485834.472 10 0 60193 62100.00000 0 -14561734.127 -5390774.973 -20217465.402 10 0 60193 63000.00000 0 -12111998.394 -6206599.979 -21555711.022 10 0 60193 63900.00000 0 -9600887.994 -7254259.500 -22474570.572 10 0 60193 64800.00000 0 -7096207.071 -8521478.895 -22956217.529 10 0 60193 65700.00000 0 -4663247.068 -9983912.550 -22991343.196 10 0 60193 66600.00000 0 -2362263.249 -11606011.992 -22579333.342 10 0 60193 67500.00000 0 -246175.259 -13342380.775 -21728274.881 10 0 60193 68400.00000 0 1641413.214 -15139559.590 -20454792.851 10 0 60193 69300.00000 0 3267794.111 -16938166.938 -18783721.235 10 0 60193 70200.00000 0 4612269.498 -18675305.788 -16747614.301 10 0 60193 71100.00000 0 5666755.913 -20287135.437 -14386108.173 10 0 60193 72000.00000 0 6435855.069 -21711500.828 -11745145.280 10 0 60193 72900.00000 0 6936389.839 -22890509.160 -8876076.971 10 0 60193 73800.00000 0 7196426.886 -23772945.817 -5834661.910 10 0 60193 74700.00000 0 7253828.796 -24316428.384 -2679980.058 10 0 60193 75600.00000 0 7154398.330 -24489208.577 526716.410 10 0 60193 76500.00000 0 6949694.350 -24271546.713 3723192.696 10 0 60193 77400.00000 0 6694612.675 -23656601.347 6847438.073 10 0 60193 78300.00000 0 6444834.762 -22650797.079 9838866.207 10 0 60193 79200.00000 0 6254252.380 -21273655.375 12639485.866 10 0 60193 80100.00000 0 6172477.217 -19557095.697 15195019.498 10 0 60193 81000.00000 0 6242540.494 -17544236.168 17455948.498 10 0 60193 81900.00000 0 6498879.485 -15287743.713 19378465.537 10 0 60193 82800.00000 0 6965695.659 -12847802.079 20925316.253 10 0 60193 83700.00000 0 7655753.557 -10289781.725 22066514.890 10 0 60193 84600.00000 0 8569671.134 -7681707.577 22779920.806 10 0 60193 85500.00000 0 9695731.885 -5091628.869 23051665.380 10 0 60194 0.00000 0 11010227.385 -2584999.250 22876421.499 10 0 60194 900.00000 0 12478317.768 -222173.355 22257510.390 10 0 60194 1800.00000 0 14055373.742 1943874.099 21206843.825 10 0 60194 2700.00000 0 15688747.826 3869517.518 19744701.990 10 0 60194 3600.00000 0 17319900.485 5522053.634 17899350.561 10 0 60194 4500.00000 0 18886794.210 6880815.270 15706503.405 10 0 60194 5400.00000 0 20326456.219 7937779.540 13208640.147 10 0 60194 6300.00000 0 21577603.103 8697645.477 10454190.749 10 0 60194 7200.00000 0 22583217.507 9177378.090 7496601.998 10 0 60194 8100.00000 0 23292968.438 9405238.280 4393303.397 10 0 60194 9000.00000 0 23665372.874 9419339.740 1204592.152 10 0 60194 9900.00000 0 23669606.711 9265794.079 -2007540.929 10 0 60194 10800.00000 0 23286887.686 8996523.075 -5180621.474 10 0 60194 11700.00000 0 22511370.742 8666831.305 -8252913.286 10 0 60194 12600.00000 0 21350516.895 8332842.780 -11164627.142 10 0 60194 13500.00000 0 19824918.964 8048911.157 -13859092.180 10 0 60194 14400.00000 0 17967590.590 7865114.295 -16283866.221 10 0 60194 15300.00000 0 15822747.764 7824940.311 -18391762.580 10 0 60194 16200.00000 0 13444133.580 7963264.092 -20141772.878 10 0 60194 17100.00000 0 10892956.202 8304700.733 -21499867.579 10 0 60194 18000.00000 0 8235526.251 8862406.214 -22439658.583 10 0 60194 18900.00000 0 5540692.318 9637376.549 -22942911.168 10 0 60194 19800.00000 0 2877181.540 10618275.399 -22999895.608 10 0 60194 20700.00000 0 310955.949 11781797.733 -22609572.061 10 0 60194 21600.00000 0 -2097305.645 13093554.439 -21779605.531 10 0 60194 22500.00000 0 -4294496.023 14509440.824 -20526211.059 10 0 60194 23400.00000 0 -6237043.702 15977431.521 -18873832.500 10 0 60194 24300.00000 0 -7892472.209 17439726.424 -16854661.415 10 0 60194 25200.00000 0 -9240490.890 18835157.470 -14508005.682 10 0 60194 26100.00000 0 -10273573.313 20101755.115 -11879520.288 10 0 60194 27000.00000 0 -10997000.903 21179366.602 -9020315.491 10 0 60194 27900.00000 0 -11428371.860 22012215.992 -5985959.866 10 0 60194 28800.00000 0 -11596597.817 22551298.303 -2835397.905 10 0 60194 29700.00000 0 -11540432.184 22756507.159 370196.531 10 0 60194 30600.00000 0 -11306593.663 22598406.612 3568608.368 10 0 60194 31500.00000 0 -10947565.299 22059572.737 6697787.764 10 0 60194 32400.00000 0 -10519162.864 21135448.828 9697051.314 10 0 60194 33300.00000 0 -10077975.766 19834678.341 12508254.759 10 0 60194 34200.00000 0 -9678788.776 18178901.643 15076914.633 10 0 60194 35100.00000 0 -9372093.332 16202024.950 17353257.597 10 0 60194 36000.00000 0 -9201793.150 13948991.652 19293177.733 10 0 60194 36900.00000 0 -9203200.506 11474106.772 20859084.006 10 0 60194 37800.00000 0 -9401407.242 8838983.604 22020622.365 10 0 60194 38700.00000 0 -9810098.867 6110196.894 22755259.268 10 0 60194 39600.00000 0 -10430861.621 3356738.967 23048716.050 10 0 60194 40500.00000 0 -11253012.020 647383.033 22895246.136 10 0 60194 41400.00000 0 -12253956.694 -1951938.261 22297749.910 10 0 60194 42300.00000 0 -13400068.444 -4380631.593 21267724.816 10 0 60194 43200.00000 0 -14648043.000 -6585716.542 19825051.116 10 0 60194 44100.00000 0 -15946680.937 -8523780.591 17997616.648 10 0 60194 45000.00000 0 -17239021.273 -10162535.025 15820786.817 10 0 60194 45900.00000 0 -18464738.365 -11481907.537 13336728.973 10 0 60194 46800.00000 0 -19562702.242 -12474626.366 10593603.158 10 0 60194 47700.00000 0 -20473595.189 -13146271.760 7644634.012 10 0 60194 48600.00000 0 -21142474.461 -13514792.895 4547081.175 10 0 60194 49500.00000 0 -21521172.787 -13609510.712 1361127.810 10 0 60194 50400.00000 0 -21570434.613 -13469649.014 -1851291.087 10 0 60194 51300.00000 0 -21261696.885 -13142456.192 -5027697.449 10 0 60194 52200.00000 0 -20578437.926 -12680997.544 -8106291.835 10 0 60194 53100.00000 0 -19517036.110 -12141712.272 -11027163.364 10 0 60194 54000.00000 0 -18087100.793 -11581839.448 -13733463.466 10 0 60194 54900.00000 0 -16311260.333 -11056822.813 -16172519.681 10 0 60194 55800.00000 0 -14224415.106 -10617805.225 -18296867.017 10 0 60194 56700.00000 0 -11872486.124 -10309319.628 -20065176.276 10 0 60194 57600.00000 0 -9310711.133 -10167274.935 -21443060.929 10 0 60194 58500.00000 0 -6601559.191 -10217322.508 -22403746.785 10 0 60194 59400.00000 0 -3812350.624 -10473672.587 -22928591.548 10 0 60194 60300.00000 0 -1012681.453 -10938410.833 -23007444.486 10 0 60194 61200.00000 0 1728240.526 -11601343.826 -22638839.591 10 0 60194 62100.00000 0 4344237.437 -12440379.988 -21830018.918 10 0 60194 63000.00000 0 6774671.337 -13422429.721 -20596786.057 10 0 60194 63900.00000 0 8966718.742 -14504786.679 -18963192.928 10 0 60194 64800.00000 0 10877315.940 -15636931.810 -16961066.301 10 0 60194 65700.00000 0 12474695.215 -16762684.007 -14629383.470 10 0 60194 66600.00000 0 13739449.308 -17822606.621 -12013509.434 10 0 60194 67500.00000 0 14665081.278 -18756568.323 -9164310.636 10 0 60194 68400.00000 0 15258018.505 -19506350.308 -6137162.679 10 0 60194 69300.00000 0 15537092.039 -20018189.910 -2990871.604 10 0 60194 70200.00000 0 15532504.921 -20245153.404 213470.049 10 0 60194 71100.00000 0 15284334.488 -20149238.035 3413669.909 10 0 60194 72000.00000 0 14840633.085 -19703114.760 6547641.883 10 0 60194 72900.00000 0 14255208.325 -18891438.367 9554608.168 10 0 60194 73800.00000 0 13585177.222 -17711669.871 12376273.892 10 0 60194 74700.00000 0 12888397.717 -16174376.494 14957951.799 10 0 60194 75600.00000 0 12220885.937 -14302996.422 17249615.596 10 0 60194 76500.00000 0 11634327.783 -12133077.679 19206862.203 10 0 60194 77400.00000 0 11173789.225 -9711022.293 20791764.986 10 0 60194 78300.00000 0 10875721.121 -7092387.186 21973602.304 10 0 60194 79200.00000 0 10766341.976 -4339811.386 22729448.090 10 0 60194 80100.00000 0 10860466.236 -1520654.485 23044613.672 10 0 60194 81000.00000 0 11160827.210 1295557.095 22912932.800 10 0 60194 81900.00000 0 11657923.222 4039771.519 22336884.472 10 0 60194 82800.00000 0 12330393.967 6646032.475 21327551.051 10 0 60194 83700.00000 0 13145912.025 9053972.247 19904411.947 10 0 60194 84600.00000 0 14062553.141 11211074.524 18094976.059 10 0 60194 85500.00000 0 15030588.753 13074613.764 15934259.080 99